This is the latest recevied weather packets stored in our database for station/object W2TAO. If no packets are shown the sender has not sent any weather packets the latest 10 day(s).
| Time | Temp. | Humidity | Pressure | Rain* | Wind** | Luminosity | Snow |
|---|---|---|---|---|---|---|---|
| 1777566343 | 11.67° C | 80% | 1008.8 hPa | 0 mm | - | 252 W/m² | - |
| 1777566041 | 12.22° C | 81% | 1008.9 hPa | 0 mm | - | 230 W/m² | - |
| 1777565736 | 11.67° C | 84% | 1008.9 hPa | 0 mm | - | 549 W/m² | - |
| 1777565432 | 11.11° C | 88% | 1008.9 hPa | 0 mm | - | 453 W/m² | - |
| 1777565129 | 10.56° C | 88% | 1009.2 hPa | 0 mm | - | 277 W/m² | - |
| 1777564825 | 10.56° C | 87% | 1009 hPa | 0 mm | - | 174 W/m² | - |
| 1777564520 | 10.56° C | 86% | 1008.9 hPa | 0 mm | - | 144 W/m² | - |
| 1777564215 | 11.11° C | 82% | 1009 hPa | 0 mm | - | 119 W/m² | - |
| 1777563912 | 11.11° C | 85% | 1008.9 hPa | 0 mm | - | 318 W/m² | - |
| 1777563609 | 11.11° C | 87% | 1009 hPa | 0 mm | - | 163 W/m² | - |
| 1777563308 | 11.11° C | 88% | 1009.1 hPa | 0 mm | - | 134 W/m² | - |
| 1777563005 | 11.11° C | 87% | 1008.9 hPa | 0 mm | - | 443 W/m² | - |
| 1777562700 | 10.56° C | 89% | 1008.9 hPa | 0 mm | - | 224 W/m² | - |
| 1777562400 | 10.56° C | 86% | 1008.8 hPa | 0 mm | - | 108 W/m² | - |
| 1777562096 | 11.11° C | 89% | 1008.8 hPa | 0 mm | - | 164 W/m² | - |
| 1777561794 | 10.56° C | 90% | 1008.8 hPa | 0 mm | - | 356 W/m² | - |
| 1777561489 | 10.56° C | 91% | 1008.7 hPa | 0 mm | - | 203 W/m² | - |
| 1777561185 | 10.56° C | 89% | 1008.8 hPa | 0 mm | - | 98 W/m² | - |
| 1777560879 | 11.11° C | 87% | 1008.7 hPa | 0 mm | - | 218 W/m² | - |
| 1777560577 | 11.11° C | 90% | 1008.5 hPa | 0 mm | - | 1055 W/m² | - |
| 1777560275 | 11.11° C | 92% | 1008.4 hPa | 0 mm | - | 360 W/m² | - |
| 1777559972 | 11.11° C | 96% | 1008.4 hPa | 0 mm | - | 454 W/m² | - |
| 1777559667 | 10.56° C | 98% | 1008.5 hPa | 0 mm | - | 835 W/m² | - |
| 1777559366 | 9.44° C | 99% | 1008.5 hPa | 0 mm | - | 417 W/m² | - |
| 1777559061 | 10° C | 99% | 1008.6 hPa | 0 mm | - | 217 W/m² | - |
* Rain latest hour (hover to see other rain measurements)
** Current wind speed in m/s (hover to see current wind gust speed)